STARLINK-34769, 65094

Orbit data source: Space-Track

STARLINK-34769, 65094 is a payload satellite owned by SpaceX/Seattle (US) in LEO that was launched on Mon, 04 Aug 2025 UTC via an FALCON 9 launch vehicle from the Air Force Eastern Test Range (AFETR). Payload-class satellites include a variety of spacecraft equipped with specific instruments for various scientific and technological missions. These include communications satellites like Starlink; space stations such as the ISS; scientific satellites like the Hubble; Earth observation satellites from companies like Planet Labs, Umbra, and HawkEye 360; GPS; miniature CubeSats for education and research; and military/defense satellites.

Loading next visibility...
Identifier
65094, 2025-167S
Orbit
LEO
Country
Flag of USUS
Related business
Manufacturer
SpaceX/Seattle
Mission
Operational spacecraft
Bus & Motor
STARLINK V2MO, Unknown motor
Mass
575 kg wet, ~530 kg dry
Launch date (UTC)
2025-08-04 (1 month ago)
Launch vehicle
FALCON 9
Launch site
Air Force Eastern Test Range (AFETR)
Object type
Payload
Rocket body
Debris
Shape & HBR
Unknown
Radar Cross Section
Large (>1 m²)

Expand to show TLE details & history
Last TLE update: 10 hours ago

TLE from 10 hours ago
0 STARLINK-34769
1 65094U 25167S   25243.17750058  .00426557  00000-0  27660-2 0  9996
2 65094  53.1579 195.0018 0003545  18.4242 341.6906 15.74237896  4261
Epoch: 2025-08-31T04:15Z
TLE epoch observation values (Epoch: 2025-08-31T04:15:36.05Z)
Latitude
0.00003°
Longitude
151.50043°
Altitude
345.454 km
Speed
7.704 km/s
True Right ascension
13h 00m 00s
True Declination
0° 00' 00"
Sunlit
Object was in daylight at epoch
Visualization orbit readout
Latitude
Unknown
Longitude
Unknown
Altitude
Unknown
Speed
Unknown
Apparent Right ascension
Unknown
Apparent Declination
Unknown
Sunlit
N/A
Visualization observer readout
Local Sidereal Time
06:15:16
Azimuth
Unknown
Elevation
Unknown
Doppler factor
Unknown
Orbital elements
Apogee altitude
349.446 km
Perigee altitude
344.678 km
Semi-major axis
6,725.199 km
Eccentricity
0.00035
Inclination
53.1579°
RAAN
195.0018°
Arg. of periapsis
18.4242°
True anomaly
341.67783°
Mean anomaly
341.6906°
Eccentric anomaly
341.68422°
Mean motion
3.93537 °/min
Orbital period
91.48 mins
BSTAR
0.002766
Loading maneuver chart data...
Computing Atmospheric mass density...
Loading historical data...
Loading historical data...
Loading historical data...
Loading historical data...
Loading historical data...
Loading historical data...
Loading historical data...

Documentation

Showing up to 5 results
|